Wind_Speed
28 25 23 21 20 19 19 18 17 16 15 14 13 11 10 10 10 9 8 8 7 7 6 5 4 4 3 4 3 3 5 5
27 26 24 23 21 19 18 17 17 16 15 14 13 11 10 10 9 9 8 8 7 7 7 7 6 6 5 5 7 6 6 5
27 27 25 23 21 20 18 17 16 15 14 13 13 12 11 11 10 8 8 7 6 6 7 8 9 9 9 8 8 7 7 5
26 26 26 24 22 21 20 18 17 16 15 14 13 12 12 11 9 9 8 8 7 8 9 10 11 10 9 8 5 3 3 3
29 27 27 25 24 23 21 19 18 17 15 13 12 11 12 11 9 9 9 10 10 9 10 11 9 8 6 3 3 5 7 6
27 27 26 23 21 21 20 19 18 17 15 13 12 11 11 10 9 9 8 11 10 9 9 8 7 2 6 6 4 12 13 14
27 27 26 24 21 20 19 19 17 15 15 13 12 11 11 10 10 10 11 10 8 8 7 7 6 5 7 9 11 12 13 14
29 27 25 22 19 21 20 19 18 16 14 12 12 12 11 10 11 12 11 10 9 8 8 8 7 8 7 7 6 8 10 12
30 29 27 24 21 21 21 20 18 16 13 11 11 13 12 10 10 12 11 11 10 9 8 8 8 8 9 10 9 10 14 14
34 32 30 27 26 23 22 23 20 18 14 11 9 11 12 11 11 11 10 10 9 9 8 8 8 10 12 13 14 16 17 18
38 36 32 28 25 25 24 24 22 18 14 12 11 12 10 11 12 12 12 11 9 9 8 8 10 12 11 12 14 17 17 17
39 34 31 30 28 26 23 21 19 16 14 12 12 12 11 13 14 14 14 13 12 11 10 9 9 11 11 15 19 18 19 19
34 36 33 30 27 24 20 19 16 14 12 11 11 12 13 14 14 13 14 15 14 13 12 11 9 11 15 22 19 17 17 17
29 31 31 28 24 19 14 16 13 12 11 9 8 9 11 13 13 13 13 14 13 13 15 13 9 17 10 16 3 6 13 12
30 31 29 23 20 16 11 13 8 12 11 9 8 8 9 11 11 11 11 12 13 14 17 16 12 17 22 7 3 3 9 7
27 27 24 19 16 16 18 16 12 11 12 11 9 9 10 11 11 10 11 12 13 13 15 19 16 17 19 11 7 14 3 3
22 20 18 15 17 20 20 20 17 11 12 12 10 9 10 11 13 12 11 12 12 12 13 16 19 17 13 6 6 10 11 5
18 18 18 20 20 18 19 19 17 15 15 15 14 12 12 13 13 12 12 11 11 11 11 13 16 17 16 12 8 6 7 5
18 19 19 17 19 20 20 20 20 22 20 19 17 15 16 15 15 14 12 11 11 11 10 9 10 11 12 10 9 8 7 8
21 19 15 15 16 19 20 21 24 26 23 21 20 19 16 15 15 14 13 12 12 12 11 10 9 8 8 8 8 6 7 11
Wind_Direction
174 176 178 177 178 179 180 178 179 179 181 183 186 189 192 194 195 194 195 195 200 215 225 237 252 253 251 266 267 293 314 319
178 180 182 182 182 182 181 182 180 181 183 188 192 194 196 200 204 206 211 212 215 229 237 245 251 263 264 270 285 300 302 309
186 184 186 186 185 185 185 185 184 185 187 190 194 199 202 203 212 217 225 227 231 242 261 264 261 258 267 272 280 303 302 296
191 190 187 185 188 189 190 189 188 190 193 198 202 207 213 217 225 221 231 245 244 252 255 270 275 269 257 264 279 311 324 306
195 197 190 188 192 191 191 192 193 195 198 203 203 204 213 220 230 222 224 241 245 245 254 259 268 268 248 224 124 101 107 104
196 195 190 192 195 195 192 191 191 192 190 194 199 203 205 212 222 228 246 249 244 241 251 233 234 228 235 183 173 131 117 106
196 194 191 190 194 195 195 193 193 192 190 196 206 213 213 223 235 234 238 240 235 225 214 200 196 169 127 140 129 132 131 121
196 194 192 190 196 197 194 192 191 192 196 204 215 219 222 236 234 236 238 233 227 219 208 191 183 168 170 162 157 145 146 134
195 195 194 191 188 189 192 193 194 196 199 210 222 225 220 226 222 214 217 215 212 209 214 205 194 176 152 148 152 150 150 141
198 197 194 194 193 198 198 199 200 200 205 219 225 223 222 221 217 210 210 210 211 214 208 199 181 155 139 127 146 149 148 144
201 199 193 191 193 193 193 190 193 195 204 219 224 221 217 214 217 207 207 213 220 231 217 193 167 147 133 129 138 148 148 142
201 192 186 183 179 179 180 185 190 197 205 210 217 223 220 209 202 199 207 219 228 233 223 210 182 148 123 119 133 140 138 135
187 186 179 177 172 170 174 179 188 197 202 208 217 222 217 211 214 213 219 230 234 221 206 196 171 153 117 107 101 113 114 130
176 180 178 178 178 179 192 198 208 214 213 210 217 232 229 227 229 226 224 227 221 212 202 185 178 170 154 129 132 84 82 106
174 176 178 178 191 198 213 206 207 197 199 210 228 241 244 238 235 236 230 225 231 225 210 206 184 186 168 154 149 172 135 97
162 167 170 178 197 208 216 213 213 221 216 227 234 248 250 243 241 237 235 243 240 234 222 210 205 193 193 212 187 139 156 138
141 154 170 188 207 212 218 221 228 241 231 231 237 245 247 245 241 248 240 240 243 240 233 225 216 212 198 169 166 162 135 138
153 170 187 203 209 220 228 227 223 229 225 227 231 237 248 245 244 239 232 228 246 252 243 232 227 221 215 208 191 174 173 146
173 190 197 206 218 222 228 237 236 233 232 229 231 235 239 241 243 236 233 223 227 236 244 232 226 223 222 213 207 217 191 160
178 193 207 223 233 236 239 242 241 238 236 236 240 248 249 242 239 234 235 235 235 226 223 223 218 216 204 189 178 176 181 177
Height
782 787 791 794 797 799 801 803 805 808 811 812 814 816 818 820 821 822 823 823 824 825 827 828 829 830 830 831 831 831 832 833
783 786 790 792 795 798 801 803 805 807 809 811 814 815 817 819 821 822 823 823 824 825 826 827 828 829 829 829 830 831 831 831
783 784 787 791 795 797 800 803 805 807 809 811 813 816 817 818 820 821 822 823 824 824 826 827 827 827 828 828 828 829 829 829
782 785 786 790 793 796 799 801 803 806 808 810 812 814 816 818 820 820 822 823 823 825 825 826 827 826 826 827 827 827 828 828
779 783 786 787 790 793 797 800 802 804 807 810 812 814 816 818 819 820 821 822 823 823 824 825 825 825 826 826 827 827 827 827
781 782 785 788 791 794 797 800 802 803 805 808 811 813 815 817 819 820 821 821 821 822 823 824 824 825 824 826 828 828 828 828
779 780 783 786 789 793 797 799 802 804 806 807 810 812 814 816 818 819 819 820 821 821 822 823 824 825 825 826 828 829 829 829
775 779 782 785 788 792 795 799 802 803 806 808 810 811 813 814 815 818 819 819 821 822 822 821 823 824 825 827 828 830 829 830
774 777 779 781 785 789 793 797 801 803 806 807 809 811 811 811 812 813 816 818 819 820 821 822 822 824 824 825 826 828 830 831
771 773 776 779 783 787 791 795 798 801 803 807 809 810 811 811 812 814 816 818 820 820 820 821 821 823 824 824 827 828 830 831
766 770 773 779 783 785 789 792 796 799 802 805 806 807 809 811 811 812 815 818 819 821 822 822 822 823 825 825 826 829 831 833
763 772 776 778 782 786 790 794 796 798 800 803 804 806 808 810 809 810 812 814 816 819 821 824 825 824 825 827 829 830 833 835
764 770 776 781 784 787 792 793 797 799 801 802 803 804 806 808 808 808 811 812 814 814 817 821 823 826 825 830 834 836 836 838
766 772 778 782 786 791 795 796 798 800 802 804 804 806 808 809 809 807 808 810 811 813 814 816 819 821 824 828 835 841 841 843
763 771 778 786 792 795 797 799 800 801 803 806 807 807 809 809 808 809 809 808 810 811 812 814 816 818 819 821 830 831 838 844
765 772 783 789 794 793 795 797 799 800 803 806 808 808 808 809 808 807 807 810 809 810 812 811 813 815 816 816 816 818 830 843
772 780 786 790 792 793 794 795 797 800 803 804 805 807 808 808 807 808 807 808 810 810 811 812 811 811 814 815 817 818 820 828
776 781 783 787 793 793 794 796 797 798 800 801 803 803 806 806 806 805 806 805 809 811 811 811 812 812 812 813 815 817 819 822
778 782 785 788 789 789 792 795 796 796 795 797 800 800 801 803 805 804 806 805 804 807 810 811 811 811 812 813 815 816 817 819
775 781 785 788 789 790 791 792 793 794 794 794 795 797 798 800 803 803 805 805 806 805 806 808 810 811 812 812 812 814 817 817